TimeMST,TemperatureF,Dew PointF,Humidity,Sea Level PressureIn,VisibilityMPH,Wind Direction,Wind SpeedMPH,Gust SpeedMPH,PrecipitationIn,Events,Conditions,WindDirDegrees,DateUTC
12:56 AM,30.0,24.1,79,30.19,10.0,South,15.0,-,N/A,,Clear,170,2012-11-16 07:56:00
1:56 AM,30.0,24.1,79,30.16,10.0,SSE,19.6,-,N/A,,Clear,160,2012-11-16 08:56:00
2:56 AM,30.0,25.0,82,30.14,10.0,South,13.8,23.0,N/A,,Clear,170,2012-11-16 09:56:00
3:56 AM,28.0,24.1,85,30.12,10.0,South,16.1,-,N/A,,Clear,170,2012-11-16 10:56:00
4:56 AM,28.0,25.0,88,30.11,10.0,South,13.8,-,N/A,,Clear,180,2012-11-16 11:56:00
5:56 AM,28.0,25.0,88,30.09,10.0,South,16.1,-,N/A,,Clear,180,2012-11-16 12:56:00
6:56 AM,28.0,24.1,85,30.09,10.0,South,17.3,-,N/A,,Clear,180,2012-11-16 13:56:00
7:56 AM,28.0,25.0,88,30.09,10.0,South,12.7,-,N/A,,Clear,190,2012-11-16 14:56:00
8:56 AM,34.0,27.0,75,30.06,10.0,South,11.5,-,N/A,,Clear,180,2012-11-16 15:56:00
9:56 AM,37.0,27.0,67,30.04,10.0,South,9.2,-,N/A,,Clear,170,2012-11-16 16:56:00
10:56 AM,42.1,28.9,60,30.03,10.0,SSW,10.4,-,N/A,,Clear,210,2012-11-16 17:56:00
11:56 AM,46.9,28.9,50,29.99,10.0,SW,8.1,-,N/A,,Clear,230,2012-11-16 18:56:00
12:56 PM,50.0,28.9,44,29.97,10.0,SSW,5.8,-,N/A,,Clear,210,2012-11-16 19:56:00
1:56 PM,50.0,30.0,46,29.97,10.0,South,10.4,-,N/A,,Clear,190,2012-11-16 20:56:00
2:56 PM,48.0,30.0,50,29.97,10.0,South,6.9,-,N/A,,Clear,180,2012-11-16 21:56:00
3:56 PM,41.0,30.0,65,29.99,10.0,SSE,6.9,-,N/A,,Clear,160,2012-11-16 22:56:00
4:56 PM,37.0,28.9,73,30.00,10.0,South,6.9,-,N/A,,Clear,170,2012-11-16 23:56:00
5:56 PM,37.9,28.0,68,30.01,10.0,SSW,5.8,-,N/A,,Clear,210,2012-11-17 00:56:00
6:56 PM,37.0,28.9,73,30.01,10.0,South,3.5,-,N/A,,Clear,190,2012-11-17 01:56:00
7:56 PM,39.0,28.0,65,30.01,10.0,West,3.5,-,N/A,,Clear,280,2012-11-17 02:56:00
8:56 PM,37.0,28.0,70,30.00,10.0,West,3.5,-,N/A,,Clear,270,2012-11-17 03:56:00
9:56 PM,35.1,28.0,76,30.01,10.0,Calm,Calm,-,N/A,,Overcast,0,2012-11-17 04:56:00
10:56 PM,34.0,27.0,75,30.00,10.0,Calm,Calm,-,N/A,,Mostly Cloudy,0,2012-11-17 05:56:00
11:56 PM,32.0,26.1,79,29.99,10.0,Calm,Calm,-,N/A,,Clear,0,2012-11-17 06:56:00